Location: Cabeza Gorda
(40.0667°N, 4.9667°W)
Time: 17:54:40
(UTC+00:00)

Cosmos 2074 Rocket - Visible Passes

Search period start: 11 April 2026 00:00
Search period end: 21 April 2026 00:00
Orbit: 967 x 985 km, 82.9° (Epoch: 11 April)

Date Brightness Start Highest point End Pass type
(mag) Time Alt. Az. Time Alt. Az. Time Alt. Az.
11 Apr 4.3 19:15:05 10° SSE 19:20:57 45° E 19:26:50 10° NNE visible
11 Apr 6.1 21:01:25 10° SW 21:06:31 26° WNW 21:11:40 10° NNW visible
12 Apr 4.0 19:40:05 10° S 19:46:17 83° E 19:52:33 10° N visible
12 Apr 6.8 21:29:14 10° W 21:32:28 14° WNW 21:35:43 10° NW visible
13 Apr 4.8 20:05:44 10° SSW 20:11:48 55° W 20:17:56 10° N visible
14 Apr 7.1 05:18:25 10° NNE 05:22:32 18° ENE 05:26:38 10° ESE visible
14 Apr 5.9 20:32:07 10° SW 20:37:30 30° WNW 20:42:57 10° NNW visible
15 Apr 6.8 20:59:31 10° WSW 21:03:24 17° WNW 21:07:19 10° NNW visible
16 Apr 4.6 19:36:42 10° SSW 19:42:51 64° W 19:49:05 10° N visible
17 Apr 7.3 04:49:57 10° NNE 04:53:28 15° ENE 04:56:59 10° E visible
17 Apr 5.8 20:02:53 10° SW 20:08:30 35° WNW 20:14:11 10° N visible
18 Apr 6.7 20:29:57 10° WSW 20:34:20 20° WNW 20:38:46 10° NNW visible
19 Apr 7.4 20:59:35 10° WNW 21:00:24 10° WNW 21:01:14 10° NW visible
20 Apr 7.4 04:21:41 10° NE 04:24:24 13° ENE 04:27:06 10° E visible
20 Apr 5.6 19:33:41 10° SW 19:39:30 41° WNW 19:45:24 10° N visible
